Weather in Novoklyuchi

Russia / Novosibirsk Oblast     54°14′39″N   78°00′19″E
temp.,
°C
wind,
m/s
gust,
m/s
humid.,
%
clouds,
%
prec.,
mm/h
press.,
hPa
HPBL,
m
27 september, mon
mon2701:00+3ne2482100 0.1 1025212
04:00+3ne2484100 0.1 1026200
07:000ne379429 0.1 1026164
10:00+4ene4683100 0.0 1025409
13:00+5ene577995 0.1 1025810
16:00+7e7863100 0.1 10241218
19:00+6ene6862100 0.1 10241011
22:00+5ene6864100 0.0 1024871
28 september, tue
tue2801:00+5e6861100 0.0 1023954
04:00+5e5859100 0.0 1022785
07:00+5e5756100 0.0 1022451
10:00+5ene5863100 0.0 1022459
13:00+8e5647100 0.0 10211269
16:00+8e5645100 0.0 10191271
19:00+7ene59525 0.0 1018419
22:00+4ene6136389 0.0 1016384
29 september, wed
wed2901:00+4ene51167100 0.0 1015416
04:00+4ene61171100 0.0 1013415
07:00+3ne51077100 0.3 1012539
10:00+4ne61073100 0.3 1012687
13:00+8ne6855100 0.3 10121264
16:00+8nne5751100 0.0 10131480
19:00+7ne465877 0.0 1015958
22:00+4ne226991 0.0 101620
30 september, thu
thu3001:00+4nw1172100 0.0 101715
04:00+2nnw33868 0.0 101831
07:00+1nnw22905 0.0 101920
10:00+4n238074 0.0 1020325
13:00+6nnw3366100 0.0 10201046
16:00+5nnw2368100 0.0 1020666
19:00+5nw3472100 0.1 1019445
22:00+4nw3575100 0.1 1019295
1 october, fri
fri101:00+3nw2575100 0.1 1018284
04:00+3wnw3575100 0.0 1018325
07:00+3w3676100 0.1 1018322
10:00+4w576899 0.0 1018647
13:00+6w6762100 0.1 10171243
16:00+6w5853100 0.1 10171483
19:00+7w5949100 0.1 1017623
22:00+5w5971100 0.0 1018843